Location: Unspecified
(0.0000°N, 0.0000°E)
Time: 21:49:46
(UTC+02:00)

IUS-9 SRM-1 - Visible Passes

Search period start: 29 July 2016 00:00
Search period end: 08 August 2016 00:00
Orbit: 228 x 20067 km, 26.5° (Epoch: 26 July)

Date Brightness Start Highest point End Pass type
(mag) Time Alt. Az. Time Alt. Az. Time Alt. Az.
29 Jul 8.2 23:20:21 10° WSW 00:05:05 75° NNW 04:10:17 10° ENE visible
30 Jul 8.0 22:47:09 10° WSW 23:21:44 80° NNW 03:33:28 10° ENE visible
31 Jul 6.2 08:29:24 10° WNW 09:53:24 79° NNE 10:00:39 10° ESE visible
31 Jul 7.9 22:14:09 10° WSW 22:41:16 86° NNW 02:55:09 10° ENE visible
01 Aug 6.6 06:39:39 10° WNW 09:19:24 71° NNE 09:28:16 10° ESE visible
01 Aug 7.7 21:41:16 10° WSW 22:02:54 88° SE 02:14:42 10° ENE visible
02 Aug 7.1 05:05:25 10° WNW 08:44:39 66° NNE 08:55:40 10° E visible
02 Aug 7.3 21:08:30 10° SW 21:26:03 81° SE 01:31:08 10° ENE visible
03 Aug 7.5 04:05:33 10° WNW 08:08:57 63° NNE 08:22:49 10° E visible
03 Aug 7.0 20:35:46 10° SW 20:50:17 73° SE 00:42:33 10° ENE visible
04 Aug 7.9 03:17:24 10° WNW 07:31:57 60° NNE 07:49:41 10° E visible
04 Aug 6.7 20:03:06 10° SW 20:15:17 64° SE 23:44:53 10° ENE visible
05 Aug 8.3 02:34:39 10° W 06:53:05 58° NNE 07:16:14 10° E visible
05 Aug 6.5 19:30:29 10° SW 19:40:51 54° SE 22:27:43 10° ENE visible
06 Aug 8.7 01:54:53 10° W 06:11:17 56° N 06:42:26 10° E visible
06 Aug 6.3 18:57:53 10° SSW 19:06:47 44° SE 20:42:34 10° ENE visible
07 Aug 8.7 01:16:57 10° W 05:24:08 55° N 06:08:11 10° E visible
07 Aug 6.2 18:25:22 10° SSW 18:33:00 34° SE 19:21:04 10° ENE visible
